Bad Axe, MI

12:30 PM EST on November 22, 2019 (GMT -0500)
Huron County Memorial

Weather History for KBAX - September, 2019

Change the Weather History Date:

Friday, September 13, 2019

  Actual Average (KP58) Record (KP58)
Temperature  
Mean Temperature 68 °F -  
Max Temperature 78 °F 72 °F 90 °F (2005)
Min Temperature 58 °F 55 °F 43 °F (2014)
Cooling Degree Days 3    
Growing Degree Days 18 (Base 50)    
Moisture  
Dew Point 60 °F    
Average Humidity 82    
Maximum Humidity 97    
Minimum Humidity 61    
Precipitation  
Precipitation 0.00 in - - ()
Sea Level Pressure  
Sea Level Pressure 30.05 in    
Wind  
Wind Speed 9 mph ()    
Max Wind Speed 17 mph    
Max Gust Speed 25 mph    
Visibility 8.6 miles    
Events Rain    
Averages and records for this station are not official NWS values.
T = Trace of Precipitation, MM = Missing Value Source: Averaged Metar Reports

Daily Weather History Graph

Daily Weather History Graph

Search for Another Location

Airport or City:

Astronomy

Sep. 13, 2019 Rise Set
Actual Time 7:08 AM EDT 7:46 PM EDT
Civil Twilight 6:39 AM EDT 8:15 PM EDT
Nautical Twilight 6:05 AM EDT 8:49 PM EDT
Astronomical Twilight 5:29 AM EDT 9:24 PM EDT
Moon 8:01 PM EDT (9/13) 6:21 AM EDT (9/13)
Length of Visible Light 13h 35m
Length of Day
12h 37m
Full, 100% of the Moon is Illuminated
Sep 13
Full
Sep 14
Full
Sep 21
Last Quarter
Sep 28
New
Oct 5
First Quarter

Hourly Weather History & Observations

Time (EDT) Temp. Dew Point Humidity Pressure Visibility Wind Dir Wind Speed Gust Speed Precip Events Conditions
12:17 AM 60.1 °F 56.3 °F 87% 30.25 in 10.0 mi SE 6.9 mph - N/A   Clear
12:35 AM 59.9 °F 55.6 °F 86% 30.23 in 10.0 mi SE 8.1 mph - N/A   Clear
12:36 AM 59.9 °F 55.6 °F 86% 30.23 in 10.0 mi SE 6.9 mph - N/A   Clear
12:55 AM 59.7 °F 54.3 °F 82% 30.24 in 10.0 mi SE 6.9 mph - N/A   Clear
12:56 AM 59.7 °F 54.3 °F 82% 30.24 in 10.0 mi SE 5.8 mph - N/A   Clear
1:19 AM 59.9 °F 52.5 °F 77% 30.22 in 10.0 mi SE 8.1 mph - N/A   Clear
1:37 AM 59.9 °F 51.8 °F 75% 30.22 in 10.0 mi SE 6.9 mph - N/A   Clear
1:55 AM 59.9 °F 51.1 °F 73% 30.22 in 10.0 mi SE 10.4 mph 16.1 mph N/A   Clear
2:15 AM 59.5 °F 51.1 °F 74% 30.21 in 10.0 mi SSE 9.2 mph - N/A   Clear
2:35 AM 59.5 °F 51.1 °F 74% 30.21 in 10.0 mi SE 10.4 mph 16.1 mph N/A   Clear
2:39 AM 59.5 °F 51.1 °F 74% 30.21 in 10.0 mi SSE 8.1 mph 16.1 mph N/A   Clear
2:58 AM 59.2 °F 51.3 °F 75% 30.20 in 10.0 mi SSE 9.2 mph - N/A   Clear
3:16 AM 59.2 °F 51.3 °F 75% 30.19 in 10.0 mi SE 11.5 mph 17.3 mph N/A   Clear
3:35 AM 59.4 °F 51.3 °F 75% 30.19 in 10.0 mi SE 10.4 mph 18.4 mph N/A   Scattered Clouds
3:55 AM 59.9 °F 51.1 °F 73% 30.18 in 10.0 mi SSE 11.5 mph 18.4 mph N/A   Mostly Cloudy
4:19 AM 59.7 °F 51.1 °F 73% 30.17 in 10.0 mi SE 9.2 mph 16.1 mph N/A   Overcast
4:37 AM 59.5 °F 50.9 °F 73% 30.16 in 10.0 mi SE 11.5 mph 17.3 mph N/A   Scattered Clouds
4:55 AM 59.9 °F 50.5 °F 71% 30.15 in 10.0 mi SE 10.4 mph 18.4 mph N/A   Mostly Cloudy
5:15 AM 59.4 °F 50.9 °F 74% 30.14 in 10.0 mi SE 11.5 mph 16.1 mph N/A   Scattered Clouds
5:35 AM 59.4 °F 51.8 °F 76% 30.14 in 10.0 mi SSE 11.5 mph 18.4 mph N/A   Scattered Clouds
5:40 AM 59.4 °F 52.2 °F 77% 30.14 in 10.0 mi SSE 11.5 mph 19.6 mph N/A   Scattered Clouds
5:58 AM 59.9 °F 52.9 °F 78% 30.14 in 10.0 mi SSE 11.5 mph 18.4 mph N/A   Mostly Cloudy
6:16 AM 58.6 °F 54.0 °F 84% 30.14 in 10.0 mi SE 11.5 mph 16.1 mph N/A Rain Light Rain
6:35 AM 58.8 °F 54.0 °F 84% 30.14 in 10.0 mi SSE 9.2 mph 18.4 mph N/A   Mostly Cloudy
6:55 AM 59.0 °F 54.1 °F 84% 30.12 in 10.0 mi SSE 10.4 mph 19.6 mph N/A   Mostly Cloudy
6:56 AM 59.0 °F 54.1 °F 84% 30.12 in 10.0 mi SE 12.7 mph 19.6 mph N/A   Mostly Cloudy
7:19 AM 59.2 °F 54.7 °F 85% 30.11 in 10.0 mi SE 9.2 mph 18.4 mph N/A   Overcast
7:37 AM 59.4 °F 55.4 °F 87% 30.12 in 10.0 mi SE 10.4 mph 18.4 mph N/A   Overcast
7:55 AM 59.5 °F 56.3 °F 89% 30.11 in 10.0 mi SSE 11.5 mph 18.4 mph N/A   Overcast
7:56 AM 59.5 °F 56.3 °F 89% 30.11 in 10.0 mi SE 11.5 mph 18.4 mph N/A   Overcast
8:15 AM 59.5 °F 56.7 °F 90% 30.11 in 10.0 mi SSE 11.5 mph 16.1 mph N/A   Overcast
8:35 AM 59.9 °F 57.2 °F 91% 30.10 in 10.0 mi SE 10.4 mph 17.3 mph N/A   Overcast
8:58 AM 60.1 °F 57.7 °F 92% 30.09 in 10.0 mi SSE 10.4 mph - N/A   Overcast
9:16 AM 60.1 °F 58.3 °F 94% 30.09 in 10.0 mi SSE 10.4 mph 16.1 mph N/A Rain Light Rain
9:35 AM 60.8 °F 59.0 °F 94% 30.13 in 7.0 mi West 5.8 mph 9.2 mph N/A Rain Light Rain
9:55 AM 61.0 °F 59.5 °F 95% 30.11 in 5.0 mi South 6.9 mph - N/A Rain Light Rain
10:19 AM 61.3 °F 60.1 °F 96% 30.09 in 2.0 mi SSE 8.1 mph - N/A   Light Drizzle
10:37 AM 61.9 °F 60.8 °F 96% 30.09 in 1.5 mi SSE 8.1 mph 18.4 mph N/A   Overcast
10:56 AM 62.6 °F 61.3 °F 96% 30.09 in 1.8 mi South 10.4 mph 17.3 mph N/A   Overcast
11:15 AM 62.6 °F 61.7 °F 97% 30.08 in 1.5 mi South 8.1 mph - N/A   Overcast
11:35 AM 63.0 °F 61.9 °F 96% 30.06 in 1.2 mi SSE 6.9 mph - N/A   Overcast
11:58 AM 63.5 °F 62.4 °F 96% 30.05 in 1.0 mi SSE 5.8 mph - N/A   Overcast
12:15 PM 63.9 °F 62.8 °F 96% 30.03 in 1.2 mi SSE 8.1 mph - N/A   Overcast
12:35 PM 64.6 °F 63.5 °F 96% 30.02 in 1.8 mi SSE 9.2 mph - N/A   Light Drizzle
12:36 PM 64.6 °F 63.5 °F 96% 30.02 in 2.0 mi SSE 8.1 mph - N/A   Light Drizzle
12:55 PM 66.2 °F 65.1 °F 96% 30.01 in 3.0 mi SSE 10.4 mph 16.1 mph N/A Rain Light Rain
12:56 PM 66.2 °F 65.1 °F 96% 30.01 in 3.0 mi SSE 10.4 mph 16.1 mph N/A Rain Light Rain
1:19 PM 68.9 °F 67.1 °F 94% 29.99 in 5.0 mi SSE 12.7 mph 20.7 mph N/A   Light Drizzle
1:36 PM 70.2 °F 68.0 °F 93% 29.98 in 5.0 mi SSE 12.7 mph 20.7 mph N/A   Light Drizzle
1:55 PM 71.6 °F 68.2 °F 89% 29.97 in 7.0 mi South 12.7 mph 20.7 mph N/A   Mostly Cloudy
1:56 PM 71.6 °F 68.2 °F 89% 29.97 in 7.0 mi South 12.7 mph 20.7 mph N/A   Mostly Cloudy
2:15 PM 72.5 °F 68.5 °F 87% 29.96 in 10.0 mi South 17.3 mph 23.0 mph N/A   Scattered Clouds
2:16 PM 72.5 °F 68.4 °F 87% 29.96 in 10.0 mi South 16.1 mph 23.0 mph N/A   Scattered Clouds
2:35 PM 72.7 °F 68.9 °F 88% 29.95 in 10.0 mi South 12.7 mph 18.4 mph N/A Rain Light Rain
2:40 PM 73.0 °F 69.1 °F 87% 29.95 in 10.0 mi South 15.0 mph - N/A Rain Light Rain
2:58 PM 74.7 °F 70.0 °F 85% 29.94 in 10.0 mi South 13.8 mph 18.4 mph N/A   Clear
3:16 PM 75.6 °F 70.2 °F 83% 29.94 in 10.0 mi South 10.4 mph - N/A   Scattered Clouds
3:35 PM 77.2 °F 70.5 °F 80% 29.93 in 10.0 mi South 11.5 mph - N/A   Scattered Clouds
3:36 PM 77.2 °F 70.5 °F 80% 29.93 in 10.0 mi South 10.4 mph - N/A   Scattered Clouds
3:55 PM 78.1 °F 71.2 °F 79% 29.93 in 10.0 mi South 8.1 mph 18.4 mph N/A   Mostly Cloudy
3:56 PM 78.1 °F 71.2 °F 79% 29.93 in 10.0 mi South 9.2 mph 18.4 mph N/A   Mostly Cloudy
4:19 PM 77.9 °F 71.8 °F 81% 29.92 in 10.0 mi SSW 5.8 mph - N/A   Overcast
4:37 PM 77.7 °F 72.0 °F 82% 29.91 in 10.0 mi SW 4.6 mph - N/A   Overcast
4:55 PM 76.3 °F 71.8 °F 86% 29.91 in 2.0 mi West 6.9 mph - N/A Rain Light Rain
5:15 PM 77.0 °F 71.8 °F 84% 29.91 in 10.0 mi West 5.8 mph - N/A   Mostly Cloudy
5:35 PM 77.5 °F 71.2 °F 81% 29.91 in 10.0 mi SW 8.1 mph - N/A   Mostly Cloudy
5:39 PM 77.4 °F 70.9 °F 80% 29.91 in 10.0 mi WSW 13.8 mph 18.4 mph N/A   Mostly Cloudy
5:58 PM 77.0 °F 70.2 °F 79% 29.92 in 10.0 mi South 9.2 mph 18.4 mph N/A   Scattered Clouds
6:16 PM 75.0 °F 70.2 °F 85% 29.91 in 10.0 mi SW 6.9 mph - N/A   Clear
6:35 PM 75.0 °F 70.7 °F 86% 29.92 in 10.0 mi SW 6.9 mph - N/A   Scattered Clouds
6:55 PM 74.8 °F 69.4 °F 83% 29.93 in 10.0 mi WSW 9.2 mph 16.1 mph N/A   Scattered Clouds
6:56 PM 75.0 °F 69.3 °F 82% 29.93 in 10.0 mi WSW 9.2 mph 16.1 mph N/A   Scattered Clouds
7:19 PM 75.2 °F 61.0 °F 61% 29.94 in 10.0 mi WSW 13.8 mph 25.3 mph N/A   Clear
7:37 PM 73.2 °F 60.3 °F 64% 29.94 in 10.0 mi WSW 10.4 mph 18.4 mph N/A   Scattered Clouds
7:55 PM 72.7 °F 60.4 °F 65% 29.94 in 10.0 mi WSW 9.2 mph - N/A   Mostly Cloudy
8:15 PM 70.9 °F 60.8 °F 70% 29.94 in 10.0 mi WSW 5.8 mph - N/A   Scattered Clouds
8:35 PM 70.2 °F 60.8 °F 72% 29.94 in 10.0 mi WSW 10.4 mph - N/A   Clear
8:40 PM 70.7 °F 60.8 °F 71% 29.94 in 10.0 mi WSW 9.2 mph - N/A   Clear
8:58 PM 70.0 °F 60.8 °F 73% 29.94 in 10.0 mi WSW 9.2 mph - N/A   Clear
9:16 PM 69.4 °F 60.8 °F 74% 29.95 in 10.0 mi WSW 11.5 mph 18.4 mph N/A   Clear
9:35 PM 68.7 °F 59.2 °F 72% 29.96 in 10.0 mi WSW 11.5 mph 16.1 mph N/A   Clear
9:55 PM 68.2 °F 59.0 °F 72% 29.96 in 10.0 mi WSW 9.2 mph - N/A   Clear
10:19 PM 67.1 °F 59.0 °F 75% 29.96 in 10.0 mi WSW 9.2 mph 17.3 mph N/A   Clear
10:37 PM 66.6 °F 58.6 °F 76% 29.97 in 10.0 mi WSW 10.4 mph 16.1 mph N/A   Clear
10:55 PM 66.0 °F 58.1 °F 76% 29.98 in 10.0 mi WSW 12.7 mph 18.4 mph N/A   Clear
11:15 PM 66.4 °F 58.1 °F 75% 29.98 in 10.0 mi WSW 10.4 mph 21.9 mph N/A   Mostly Cloudy
11:35 PM 66.2 °F 56.8 °F 72% 29.99 in 10.0 mi WSW 17.3 mph 23.0 mph N/A   Mostly Cloudy
11:40 PM 66.0 °F 55.8 °F 69% 30.00 in 10.0 mi WSW 15.0 mph 24.2 mph N/A   Mostly Cloudy
11:58 PM 64.6 °F 55.6 °F 73% 30.01 in 10.0 mi West 13.8 mph 20.7 mph N/A   Scattered Clouds